Flag for U.S.A. Weather past 2 weeks in Carson City, Nevada, U.S.A.

Now
46 °F

Passing clouds.


Feels Like: 45 °F
Forecast: 34 / 50 °F
Wind: 3 mph from Northwest

Location: Reno Tahoe International Airport

Current Time: Feb 26, 2015 at 8:34:22 PM

Latest Report: Feb 26, 2015 at 7:55 PM


Visibility: 10 mi

Pressure: 29.91 "Hg

Humidity: 40%

Dew point: 23 °F

Location of Carson CityLocation

Historic Weather in Carson City — Graph

°F

Carson City temperature yesterday

Maximum temperature yesterday: 61 °F (at 1:55 PM)
Minimum temperature yesterday: 28 °F (at 2:55 AM)
Average temperature yesterday: 44 °F

Past Weeks' High & Low Weather Summary

 TemperatureHumidityPressure
High72 °F (Feb 14, 2:55 PM)90% (Feb 13, 6:55 AM)30.51 "Hg (Feb 13, 6:55 AM)
Low22 °F (Feb 23, 6:55 AM)6% (Feb 24, 2:55 PM)29.83 "Hg (Feb 21, 2:55 PM)
Average46 °F46%30.15 "Hg
* Reported Feb 11 6:55 PM — Feb 26 6:55 PM, Carson City, Weather by CustomWeather, © 2015

Note: Actual official high and low records may vary slightly from our data, if they occured in-between our weather recording intervals... More about our weather records

Advertising

Carson City weather history for previous 24 hours

 ConditionsComfort  
Time TempWeatherWind HumidityBarometerVisibility
6:55 PM
Thu, Feb 26
47 °FPassing clouds.7 mph36%29.94 "Hg10 mi
5:55 PM50 °FPassing clouds.13 mph33%29.93 "Hg10 mi
4:55 PM53 °FScattered clouds.10 mph25%29.94 "Hg10 mi
3:55 PM55 °FPassing clouds.13 mph22%29.94 "Hg10 mi
2:55 PM54 °FPassing clouds.No wind25%29.96 "Hg10 mi
1:55 PM54 °FPassing clouds.3 mph27%29.98 "Hg10 mi
12:55 PM52 °FScattered clouds.7 mph34%30.04 "Hg10 mi
11:55 AM50 °FBroken clouds.No wind38%30.07 "Hg10 mi
10:55 AM49 °FScattered clouds.7 mph41%30.10 "Hg10 mi
9:55 AM48 °FScattered clouds.7 mph44%30.10 "Hg10 mi
8:55 AM44 °FScattered clouds.6 mph47%30.13 "Hg10 mi
7:55 AM38 °FScattered clouds.5 mph58%30.13 "Hg10 mi
6:55 AM36 °FPassing clouds.6 mph57%30.09 "Hg10 mi
5:55 AM39 °FPassing clouds.3 mph53%30.07 "Hg10 mi
4:55 AM39 °FClear.10 mph53%30.06 "Hg10 mi
3:55 AM36 °FPassing clouds.No wind54%30.06 "Hg10 mi
2:55 AM36 °FPassing clouds.6 mph54%30.06 "Hg10 mi
1:55 AM38 °FClear.No wind48%30.06 "Hg10 mi
12:55 AM37 °FPassing clouds.No wind52%30.07 "Hg10 mi
11:55 PM
Wed, Feb 25
40 °FPassing clouds.5 mph47%30.09 "Hg10 mi
10:55 PM39 °FPassing clouds.6 mph46%30.10 "Hg10 mi
9:55 PM46 °FPassing clouds.No wind34%30.11 "Hg10 mi
8:55 PM46 °FPassing clouds.No wind35%30.14 "Hg10 mi
Weather by CustomWeather, © 2015

See weather overviewHow to use our weather pages